When you browse on this site, cookies collect data to enhance your experience and personalize the content and advertising you see.
Visit our Privacy Policy to learn more. By continuing to use the site, you agree to this use of cookies and data.
  • In Österreich
  • Länderverzeichnis
  • Für 7 Tage
  • Wassertemperatur
  • Wetterkarte
  • News
  • Widgets
  • user-avatar
    Anmelden

    Stündliche Wetter Bischofshofen

    Heute, 22 September, Sonntag

    Zeit Temperatur Niederschläge Wind Luftdruck Luftfeuchtigkeit
    00:00 +10°C° 0 mm 3 m/S 699 mmHg 83%
    01:00 +10°C° 0 mm 3 m/S 698 mmHg 87%
    02:00 +10°C° 0 mm 3 m/S 698 mmHg 87%
    03:00 +11°C° 0 mm 3 m/S 698 mmHg 86%
    04:00 +12°C° 0 mm 2 m/S 697 mmHg 86%
    05:00 +12°C° 0 mm 2 m/S 697 mmHg 83%
    06:00 +13°C° 0 mm 2 m/S 698 mmHg 81%
    07:00 +13°C° 0 mm 2 m/S 698 mmHg 79%
    08:00 +15°C° 0 mm 2 m/S 698 mmHg 71%
    09:00 +18°C° 0 mm 2 m/S 698 mmHg 63%
    10:00 +20°C° 0 mm 2 m/S 698 mmHg 55%
    11:00 +22°C° 0 mm 1 m/S 697 mmHg 53%
    12:00 +23°C° 0 mm 1 m/S 697 mmHg 51%
    13:00 +24°C° 0 mm 1 m/S 697 mmHg 49%
    14:00 +23°C° 0 mm 1 m/S 697 mmHg 52%
    15:00 +23°C° 0 mm 1 m/S 696 mmHg 55%
    16:00 +23°C° 0 mm 1 m/S 696 mmHg 58%
    17:00 +21°C° 0 mm 1 m/S 696 mmHg 66%
    18:00 +19°C° 0 mm 1 m/S 696 mmHg 74%
    19:00 +16°C° 0 mm 1 m/S 696 mmHg 82%
    20:00 +15°C° 0 mm 2 m/S 696 mmHg 82%
    21:00 +15°C° 0 mm 2 m/S 696 mmHg 83%
    22:00 +15°C° 0 mm 2 m/S 695 mmHg 83%
    23:00 +15°C° 0 mm 2 m/S 695 mmHg 83%

    Morgen, 23 September, Montag

    Zeit Temperatur Niederschläge Wind Luftdruck Luftfeuchtigkeit
    00:00 +14°C° 0 mm 2 m/S 695 mmHg 83%
    01:00 +14°C° 0 mm 1 m/S 695 mmHg 82%
    02:00 +14°C° 0 mm 1 m/S 695 mmHg 82%
    03:00 +14°C° 0 mm 1 m/S 695 mmHg 82%
    04:00 +14°C° 0 mm 1 m/S 695 mmHg 82%
    05:00 +15°C° 0 mm 1 m/S 695 mmHg 83%
    06:00 +15°C° 0 mm 1 m/S 695 mmHg 83%
    07:00 +15°C° 0 mm 1 m/S 695 mmHg 84%
    08:00 +15°C° 0.4 mm 1 m/S 696 mmHg 86%
    09:00 +15°C° 0.4 mm 1 m/S 696 mmHg 88%
    10:00 +16°C° 0.4 mm 2 m/S 696 mmHg 90%
    11:00 +15°C° 1 mm 2 m/S 696 mmHg 93%
    12:00 +14°C° 1 mm 2 m/S 696 mmHg 95%
    13:00 +14°C° 1 mm 2 m/S 696 mmHg 97%
    14:00 +13°C° 1.3 mm 2 m/S 696 mmHg 98%
    15:00 +13°C° 1.3 mm 2 m/S 696 mmHg 98%
    16:00 +12°C° 1.3 mm 2 m/S 696 mmHg 98%
    17:00 +12°C° 1.5 mm 1 m/S 697 mmHg 98%
    18:00 +12°C° 1.5 mm 1 m/S 697 mmHg 98%
    19:00 +12°C° 1.5 mm 1 m/S 697 mmHg 98%
    20:00 +12°C° 0.4 mm 1 m/S 697 mmHg 98%
    21:00 +12°C° 0.4 mm 1 m/S 698 mmHg 98%
    22:00 +12°C° 0.4 mm 1 m/S 698 mmHg 98%
    23:00 +12°C° 0.1 mm 1 m/S 698 mmHg 98%

    übermorgen, 24 September, Dienstag

    Zeit Temperatur Niederschläge Wind Luftdruck Luftfeuchtigkeit
    00:00 +12°C° 0.1 mm 1 m/S 698 mmHg 98%
    01:00 +12°C° 0.1 mm 1 m/S 698 mmHg 98%
    02:00 +11°C° 0 mm 1 m/S 697 mmHg 98%
    03:00 +11°C° 0 mm 1 m/S 697 mmHg 98%
    04:00 +9°C° 0 mm 0 m/S 697 mmHg 97%
    05:00 +11°C° 0 mm 1 m/S 697 mmHg 97%
    06:00 +11°C° 0 mm 1 m/S 697 mmHg 97%
    07:00 +11°C° 0 mm 1 m/S 697 mmHg 96%
    08:00 +13°C° 0 mm 1 m/S 697 mmHg 89%
    09:00 +14°C° 0 mm 0 m/S 697 mmHg 82%
    10:00 +15°C° 0 mm 0 m/S 697 mmHg 75%
    11:00 +17°C° 0 mm 0 m/S 696 mmHg 68%
    12:00 +18°C° 0 mm 0 m/S 696 mmHg 61%
    13:00 +22°C° 0 mm 1 m/S 696 mmHg 54%
    14:00 +21°C° 0 mm 1 m/S 695 mmHg 57%
    15:00 +21°C° 0 mm 1 m/S 695 mmHg 61%
    16:00 +20°C° 0 mm 1 m/S 694 mmHg 64%
    17:00 +18°C° 0 mm 1 m/S 694 mmHg 72%
    18:00 +15°C° 0 mm 1 m/S 694 mmHg 81%
    19:00 +13°C° 0 mm 1 m/S 693 mmHg 89%
    20:00 +13°C° 0 mm 1 m/S 694 mmHg 89%
    21:00 +13°C° 0 mm 1 m/S 694 mmHg 90%
    22:00 +13°C° 0 mm 1 m/S 694 mmHg 90%
    23:00 +12°C° 0 mm 0 m/S 694 mmHg 91%

    25 September, Mittwoch

    Zeit Temperatur Niederschläge Wind Luftdruck Luftfeuchtigkeit
    00:00 +12°C° 0 mm 0 m/S 694 mmHg 92%
    01:00 +12°C° 0 mm 0 m/S 694 mmHg 93%
    02:00 +12°C° 0 mm 0 m/S 694 mmHg 93%
    03:00 +12°C° 0 mm 1 m/S 693 mmHg 94%
    04:00 +12°C° 0 mm 1 m/S 693 mmHg 94%
    05:00 +12°C° 0.1 mm 1 m/S 693 mmHg 94%
    06:00 +13°C° 0.1 mm 1 m/S 693 mmHg 93%
    07:00 +12°C° 0.1 mm 0 m/S 693 mmHg 92%
    08:00 +13°C° 0.3 mm 1 m/S 693 mmHg 92%
    09:00 +14°C° 0.3 mm 1 m/S 693 mmHg 91%
    10:00 +14°C° 0.3 mm 1 m/S 694 mmHg 91%
    11:00 +13°C° 1.4 mm 1 m/S 693 mmHg 92%
    12:00 +13°C° 1.4 mm 1 m/S 693 mmHg 94%
    13:00 +12°C° 1.4 mm 1 m/S 693 mmHg 96%
    14:00 +12°C° 2 mm 1 m/S 693 mmHg 96%
    15:00 +11°C° 2 mm 1 m/S 693 mmHg 96%
    16:00 +11°C° 2 mm 1 m/S 694 mmHg 96%
    17:00 +11°C° 0.9 mm 1 m/S 694 mmHg 96%
    18:00 +11°C° 0.9 mm 1 m/S 694 mmHg 97%
    19:00 +11°C° 0.9 mm 1 m/S 695 mmHg 97%
    20:00 +11°C° 0.4 mm 1 m/S 695 mmHg 97%
    21:00 +11°C° 0.4 mm 1 m/S 695 mmHg 97%
    22:00 +11°C° 0.4 mm 1 m/S 696 mmHg 97%
    23:00 +11°C° 0.1 mm 1 m/S 696 mmHg 97%

    26 September, Donnerstag

    Zeit Temperatur Niederschläge Wind Luftdruck Luftfeuchtigkeit
    00:00 +10°C° 0.1 mm 1 m/S 696 mmHg 97%
    01:00 +10°C° 0.1 mm 1 m/S 696 mmHg 97%
    02:00 +10°C° 0.1 mm 1 m/S 696 mmHg 97%
    03:00 +10°C° 0.1 mm 1 m/S 696 mmHg 96%
    04:00 +10°C° 0.1 mm 1 m/S 696 mmHg 96%
    05:00 +10°C° 0 mm 1 m/S 696 mmHg 96%
    06:00 +10°C° 0 mm 1 m/S 697 mmHg 95%
    07:00 +10°C° 0 mm 1 m/S 697 mmHg 95%
    08:00 +12°C° 0 mm 1 m/S 697 mmHg 87%
    09:00 +14°C° 0 mm 1 m/S 698 mmHg 79%
    10:00 +16°C° 0 mm 1 m/S 698 mmHg 71%
    11:00 +18°C° 0 mm 1 m/S 698 mmHg 66%
    12:00 +19°C° 0 mm 1 m/S 698 mmHg 61%
    13:00 +19°C° 0 mm 1 m/S 698 mmHg 56%
    14:00 +19°C° 0 mm 1 m/S 698 mmHg 58%
    15:00 +19°C° 0 mm 1 m/S 697 mmHg 60%
    16:00 +19°C° 0 mm 1 m/S 697 mmHg 63%
    17:00 +16°C° 0 mm 1 m/S 697 mmHg 70%
    18:00 +14°C° 0 mm 1 m/S 697 mmHg 77%
    19:00 +13°C° 0 mm 1 m/S 697 mmHg 84%
    20:00 +12°C° 0 mm 1 m/S 697 mmHg 84%
    21:00 +12°C° 0 mm 1 m/S 697 mmHg 85%
    22:00 +11°C° 0 mm 1 m/S 697 mmHg 86%
    23:00 +11°C° 0 mm 1 m/S 697 mmHg 85%

    27 September, Freitag

    Zeit Temperatur Niederschläge Wind Luftdruck Luftfeuchtigkeit
    00:00 +11°C° 0 mm 1 m/S 697 mmHg 85%
    01:00 +11°C° 0 mm 1 m/S 697 mmHg 84%
    02:00 +11°C° 0 mm 1 m/S 697 mmHg 83%
    03:00 +11°C° 0 mm 1 m/S 697 mmHg 82%
    04:00 +11°C° 0 mm 1 m/S 697 mmHg 81%
    05:00 +12°C° 0 mm 1 m/S 697 mmHg 79%
    06:00 +13°C° 0 mm 1 m/S 697 mmHg 78%
    07:00 +13°C° 0 mm 1 m/S 697 mmHg 76%
    08:00 +16°C° 0 mm 1 m/S 698 mmHg 69%
    09:00 +19°C° 0 mm 1 m/S 698 mmHg 62%
    10:00 +19°C° 0 mm 0 m/S 699 mmHg 54%
    11:00 +21°C° 0 mm 1 m/S 698 mmHg 55%
    12:00 +21°C° 0 mm 1 m/S 698 mmHg 55%
    13:00 +21°C° 0 mm 1 m/S 698 mmHg 56%
    14:00 +21°C° 0 mm 1 m/S 697 mmHg 62%
    15:00 +20°C° 0 mm 1 m/S 697 mmHg 68%
    16:00 +17°C° 0 mm 0 m/S 696 mmHg 74%
    17:00 +16°C° 0 mm 0 m/S 697 mmHg 76%
    18:00 +16°C° 0 mm 1 m/S 697 mmHg 79%
    19:00 +15°C° 0 mm 1 m/S 697 mmHg 81%
    20:00 +15°C° 0.1 mm 1 m/S 697 mmHg 83%
    21:00 +14°C° 0.1 mm 1 m/S 697 mmHg 85%
    22:00 +14°C° 0.1 mm 1 m/S 698 mmHg 88%
    23:00 +14°C° 1.5 mm 1 m/S 698 mmHg 91%
    Mehr zeigen